Location: Newark
(41.2758°N, 92.6808°W)
Time: 18:41:13
(UTC+00:00)

Envisat - Pass Details

Date: 22 September 2019
Orbit: 764 x 766 km, 98.1° (Epoch: 22 October)

Event Time Altitude Azimuth Distance (km) Brightness Sun altitude
Rises 01:25:29 0° 203° (SSW) 3,219 6.3 -14.9°
Reaches altitude 10° 01:28:20 10° 219° (SW) 2,298 5.8 -15.4°
Maximum altitude 01:32:05 21° 267° (W) 1,681 5.7 -16.1°
Drops below altitude 10° 01:35:52 10° 316° (NW) 2,310 6.4 -16.8°
Sets 01:38:45 0° 332° (NNW) 3,241 6.9 -17.3°
